Location: Fort Wayne
(41.1310°N, 85.1290°W)
Time: 11:40:05
(UTC-04:00)

Oscar 19 - Visible Passes

Search period start: 24 June 2017 00:00
Search period end: 04 July 2017 00:00
Orbit: 773 x 791 km, 98.6° (Epoch: 23 June)

Date Brightness Start Highest point End Pass type
(mag) Time Alt. Az. Time Alt. Az. Time Alt. Az.
24 Jun 11.0 02:58:01 10° NNE 03:03:03 54° E 03:04:24 42° SSE visible
24 Jun 12.3 04:38:23 10° NNW 04:41:57 19° WNW 04:44:57 12° WSW visible
25 Jun 12.0 02:26:45 10° NE 02:31:03 27° E 02:32:10 25° ESE visible
25 Jun 11.5 04:05:46 10° N 04:10:24 36° WNW 04:12:43 24° WSW visible
26 Jun 12.8 01:56:29 10° ENE 01:58:55 13° E 01:59:56 13° ESE visible
26 Jun 10.6 03:33:37 10° N 03:38:44 71° WNW 03:40:29 41° SW visible
27 Jun 10.9 03:01:50 10° NNE 03:06:54 58° E 03:08:15 44° SSE visible
27 Jun 12.4 04:42:22 10° NNW 04:45:45 18° WNW 04:48:48 11° W visible
28 Jun 11.9 02:30:29 10° NE 02:34:56 29° E 02:36:00 27° ESE visible
28 Jun 11.6 04:09:40 10° N 04:14:14 33° WNW 04:16:34 23° WSW visible
29 Jun 12.7 02:00:01 10° ENE 02:02:48 15° E 02:03:46 14° ESE visible
29 Jun 10.7 03:37:29 10° N 03:42:34 65° WNW 03:44:19 40° SW visible
30 Jun 10.8 03:05:39 10° NNE 03:10:45 64° ESE 03:12:05 46° SSE visible
30 Jun 12.5 04:46:22 10° NNW 04:49:32 17° WNW 04:52:38 10° W visible
01 Jul 11.8 02:34:14 10° NE 02:38:47 32° E 02:39:50 29° ESE visible
01 Jul 11.7 04:13:35 10° N 04:18:02 31° WNW 04:20:24 21° WSW visible
02 Jul 12.6 02:03:36 10° NE 02:06:41 16° E 02:07:36 15° ESE visible
02 Jul 10.8 03:41:20 10° N 03:46:23 60° WNW 03:48:09 38° SW visible
03 Jul 10.7 03:09:28 10° NNE 03:14:36 69° ESE 03:15:54 49° SSE visible
03 Jul 12.6 04:50:24 10° NNW 04:53:19 16° WNW 04:56:15 10° W visible
